| time (UTC) | temp F | wind direction | speed knots | gust knots | rain 1hr in | rain 24hr in | rain mn in | humidity % | barometer mb |
| 20260510221009 | 66 | 79 | 1.7 | 6.1 | 0.00 | 0.00 | 0.00 | 30 | 1019.3 |
| 20260510220012 | 67 | 326 | 2.6 | 7.0 | 0.00 | 0.00 | 0.00 | 31 | 1019.2 |
| 20260510215508 | 67 | 83 | 0.9 | 7.0 | 0.00 | 0.00 | 0.00 | 31 | 1019.3 |
| 20260510215009 | 67 | 283 | 1.7 | 4.3 | 0.00 | 0.00 | 0.00 | 29 | 1019.3 |
| 20260510214517 | 67 | 319 | 2.6 | 4.3 | 0.00 | 0.00 | 0.00 | 29 | 1019.3 |
| 20260510214012 | 67 | 347 | 1.7 | 5.2 | 0.00 | 0.00 | 0.00 | 31 | 1019.2 |
| 20260510213508 | 67 | 326 | 1.7 | 6.1 | 0.00 | 0.00 | 0.00 | 31 | 1019.1 |
| 20260510213022 | 67 | 327 | 0.0 | 6.1 | 0.00 | 0.00 | 0.00 | 30 | 1019.1 |
| 20260510212507 | 67 | 120 | 1.7 | 5.2 | 0.00 | 0.00 | 0.00 | 31 | 1018.9 |
| 20260510212009 | 68 | 66 | 1.7 | 5.2 | 0.00 | 0.00 | 0.00 | 29 | 1018.9 |
| 20260510211527 | 68 | 338 | 0.9 | 8.7 | 0.00 | 0.00 | 0.00 | 27 | 1018.9 |
| 20260510211009 | 68 | 262 | 1.7 | 8.7 | 0.00 | 0.00 | 0.00 | 30 | 1018.9 |
| 20260510210010 | 68 | 89 | 2.6 | 7.8 | 0.00 | 0.00 | 0.00 | 30 | 1018.8 |
| 20260510205006 | 68 | 334 | 1.7 | 7.8 | 0.00 | 0.00 | 0.00 | 30 | 1018.7 |
| 20260510204514 | 68 | 298 | 2.6 | 13.0 | 0.00 | 0.00 | 0.00 | 29 | 1018.8 |
| 20260510204005 | 68 | 252 | 1.7 | 13.0 | 0.00 | 0.00 | 0.00 | 30 | 1018.7 |
| 20260510203507 | 68 | 297 | 3.5 | 10.4 | 0.00 | 0.00 | 0.00 | 30 | 1018.7 |
| 20260510203019 | 68 | 320 | 1.7 | 5.2 | 0.00 | 0.00 | 0.00 | 30 | 1018.7 |
| 20260510202506 | 68 | 250 | 2.6 | 5.2 | 0.00 | 0.00 | 0.00 | 28 | 1018.7 |
| 20260510202009 | 68 | 257 | 1.7 | 7.0 | 0.00 | 0.00 | 0.00 | 29 | 1018.7 |
| 20260510201523 | 68 | 262 | 2.6 | 7.0 | 0.00 | 0.00 | 0.00 | 31 | 1018.7 |
| 20260510201009 | 68 | 32 | 0.9 | 6.1 | 0.00 | 0.00 | 0.00 | 33 | 1018.7 |
| 20260510200508 | 68 | 322 | 2.6 | 6.1 | 0.00 | 0.00 | 0.00 | 31 | 1018.9 |
| 20260510200024 | 68 | 278 | 2.6 | 7.8 | 0.00 | 0.00 | 0.00 | 31 | 1018.8 |
| 20260510195506 | 67 | 115 | 2.6 | 10.4 | 0.00 | 0.00 | 0.00 | 33 | 1018.8 |
| 20260510193016 | 67 | 4 | 2.6 | 10.4 | 0.00 | 0.00 | 0.00 | 32 | 1018.6 |
| 20260510192504 | 67 | 288 | 2.6 | 7.0 | 0.00 | 0.00 | 0.00 | 28 | 1018.7 |
| 20260510192007 | 67 | 41 | 1.7 | 6.1 | 0.00 | 0.00 | 0.00 | 32 | 1018.6 |
| 20260510191520 | 67 | 344 | 0.9 | 6.1 | 0.00 | 0.00 | 0.00 | 31 | 1018.6 |
| 20260510191010 | 67 | 289 | 1.7 | 9.6 | 0.00 | 0.00 | 0.00 | 35 | 1018.6 |
| 20260510190503 | 67 | 52 | 2.6 | 9.6 | 0.00 | 0.00 | 0.00 | 31 | 1018.6 |
| 20260510190012 | 67 | 49 | 2.6 | 7.0 | 0.00 | 0.00 | 0.00 | 32 | 1018.5 |
| 20260510183504 | 67 | 281 | 1.7 | 6.1 | 0.00 | 0.00 | 0.00 | 29 | 1018.7 |
| 20260510182008 | 66 | 287 | 3.5 | 10.4 | 0.00 | 0.00 | 0.00 | 28 | 1018.7 |
| 20260510181516 | 66 | 315 | 1.7 | 7.8 | 0.00 | 0.00 | 0.00 | 29 | 1018.6 |
| 20260510181010 | 66 | 263 | 4.3 | 9.6 | 0.00 | 0.00 | 0.00 | 28 | 1018.6 |
| 20260510180508 | 66 | 348 | 4.3 | 9.6 | 0.00 | 0.00 | 0.00 | 28 | 1018.6 |
| 20260510180024 | 66 | 266 | 0.9 | 6.1 | 0.00 | 0.00 | 0.00 | 35 | 1018.7 |
| 20260510175503 | 66 | 42 | 2.6 | 6.1 | 0.00 | 0.00 | 0.00 | 34 | 1018.7 |
| 20260510175003 | 65 | 219 | 2.6 | 8.7 | 0.00 | 0.00 | 0.00 | 29 | 1018.7 |
| 20260510174506 | 65 | 304 | 2.6 | 9.6 | 0.00 | 0.00 | 0.00 | 32 | 1018.9 |
| 20260510173503 | 65 | 276 | 2.6 | 7.0 | 0.00 | 0.00 | 0.00 | 31 | 1018.8 |
| 20260510173012 | 65 | 300 | 0.9 | 8.7 | 0.00 | 0.00 | 0.00 | 31 | 1018.8 |
| 20260510172504 | 66 | 283 | 2.6 | 8.7 | 0.00 | 0.00 | 0.00 | 31 | 1018.9 |
| 20260510170020 | 64 | 240 | 0.9 | 6.1 | 0.00 | 0.00 | 0.00 | 33 | 1019.2 |
| 20260510165508 | 65 | 53 | 1.7 | 5.2 | 0.00 | 0.00 | 0.00 | 38 | 1019.2 |
| 20260510165008 | 64 | 49 | 2.6 | 5.2 | 0.00 | 0.00 | 0.00 | 36 | 1019.1 |
| 20260510164523 | 64 | 324 | 2.6 | 5.2 | 0.00 | 0.00 | 0.00 | 32 | 1019.4 |
| 20260510164003 | 64 | 51 | 0.9 | 5.2 | 0.00 | 0.00 | 0.00 | 35 | 1019.3 |
| 20260510163503 | 64 | 168 | 1.7 | 5.2 | 0.00 | 0.00 | 0.00 | 35 | 1019.2 |
| 20260510163009 | 64 | 317 | 1.7 | 4.3 | 0.00 | 0.00 | 0.00 | 34 | 1019.3 |
| 20260510161511 | 63 | 63 | 2.6 | 5.2 | 0.00 | 0.00 | 0.00 | 37 | 1019.1 |
| 20260510161004 | 63 | 245 | 1.7 | 5.2 | 0.00 | 0.00 | 0.00 | 34 | 1018.9 |
| 20260510160505 | 63 | 40 | 3.5 | 6.1 | 0.00 | 0.00 | 0.00 | 33 | 1018.9 |
| 20260510160016 | 63 | 356 | 2.6 | 6.1 | 0.00 | 0.00 | 0.00 | 34 | 1019.1 |
| 20260510155507 | 63 | 330 | 1.7 | 6.1 | 0.00 | 0.00 | 0.00 | 35 | 1019.1 |
| 20260510155009 | 62 | 266 | 1.7 | 6.1 | 0.00 | 0.00 | 0.00 | 38 | 1019.0 |
| 20260510154521 | 62 | 298 | 0.9 | 4.3 | 0.00 | 0.00 | 0.00 | 39 | 1018.9 |
| 20260510154008 | 62 | 282 | 1.7 | 5.2 | 0.00 | 0.00 | 0.00 | 39 | 1018.7 |
| 20260510153508 | 61 | 62 | 2.6 | 6.1 | 0.00 | 0.00 | 0.00 | 38 | 1018.5 |
| 20260510153022 | 61 | 68 | 2.6 | 7.8 | 0.00 | 0.00 | 0.00 | 40 | 1018.5 |
| 20260510152508 | 61 | 81 | 1.7 | 7.8 | 0.00 | 0.00 | 0.00 | 44 | 1018.4 |
| 20260510150017 | 60 | 77 | 3.5 | 7.8 | 0.00 | 0.00 | 0.00 | 48 | 1018.2 |
| 20260510145506 | 60 | 76 | 4.3 | 7.8 | 0.00 | 0.00 | 0.00 | 45 | 1018.4 |
| 20260510145007 | 60 | 290 | 0.9 | 7.0 | 0.00 | 0.00 | 0.00 | 48 | 1018.3 |
| 20260510144526 | 59 | 356 | 3.5 | 7.0 | 0.00 | 0.00 | 0.00 | 48 | 1018.4 |
| 20260510144007 | 59 | 53 | 1.7 | 5.2 | 0.00 | 0.00 | 0.00 | 47 | 1018.5 |
| 20260510143506 | 60 | 69 | 1.7 | 5.2 | 0.00 | 0.00 | 0.00 | 50 | 1018.5 |
| 20260510143028 | 59 | 333 | 0.9 | 5.2 | 0.00 | 0.00 | 0.00 | 52 | 1018.5 |
| 20260510142507 | 58 | 56 | 3.5 | 6.1 | 0.00 | 0.00 | 0.00 | 50 | 1018.6 |
| 20260510142006 | 58 | 27 | 2.6 | 6.1 | 0.00 | 0.00 | 0.00 | 50 | 1018.5 |
| 20260510141524 | 58 | 63 | 1.7 | 5.2 | 0.00 | 0.00 | 0.00 | 51 | 1018.5 |
| 20260510141005 | 58 | 45 | 2.6 | 7.0 | 0.00 | 0.00 | 0.00 | 53 | 1018.4 |
| 20260510140503 | 57 | 44 | 3.5 | 7.0 | 0.00 | 0.00 | 0.00 | 55 | 1018.4 |
| 20260510140013 | 56 | 41 | 3.5 | 7.8 | 0.00 | 0.00 | 0.00 | 53 | 1018.4 |
| 20260510134521 | 55 | 51 | 4.3 | 8.7 | 0.00 | 0.00 | 0.00 | 56 | 1018.2 |
| 20260510134007 | 55 | 55 | 5.2 | 8.7 | 0.00 | 0.00 | 0.00 | 56 | 1018.2 |
| 20260510133504 | 55 | 56 | 5.2 | 8.7 | 0.00 | 0.00 | 0.00 | 56 | 1018.2 |
| 20260510133022 | 54 | 48 | 4.3 | 7.8 | 0.00 | 0.00 | 0.00 | 57 | 1018.2 |
| 20260510132507 | 54 | 54 | 4.3 | 7.8 | 0.00 | 0.00 | 0.00 | 58 | 1018.1 |
| 20260510132010 | 54 | 51 | 6.1 | 7.8 | 0.00 | 0.00 | 0.00 | 59 | 1018.1 |
| 20260510131524 | 54 | 47 | 4.3 | 8.7 | 0.00 | 0.00 | 0.00 | 60 | 1018.0 |
| 20260510131007 | 53 | 57 | 4.3 | 8.7 | 0.00 | 0.00 | 0.00 | 60 | 1017.9 |
| 20260510130509 | 53 | 46 | 6.1 | 8.7 | 0.00 | 0.00 | 0.00 | 60 | 1017.8 |
| 20260510130024 | 53 | 51 | 7.0 | 8.7 | 0.00 | 0.00 | 0.00 | 59 | 1017.7 |
| 20260510125503 | 52 | 54 | 5.2 | 8.7 | 0.00 | 0.00 | 0.00 | 62 | 1017.6 |
| 20260510125008 | 52 | 68 | 6.1 | 8.7 | 0.00 | 0.00 | 0.00 | 61 | 1017.5 |
| 20260510124515 | 52 | 63 | 6.1 | 7.8 | 0.00 | 0.00 | 0.00 | 61 | 1017.4 |
| 20260510124004 | 51 | 67 | 5.2 | 7.0 | 0.00 | 0.00 | 0.00 | 62 | 1017.3 |
| 20260510123018 | 51 | 62 | 4.3 | 7.0 | 0.00 | 0.00 | 0.00 | 66 | 1017.3 |
| 20260510122507 | 50 | 73 | 4.3 | 7.0 | 0.00 | 0.00 | 0.00 | 66 | 1017.3 |
| 20260510122007 | 50 | 55 | 4.3 | 7.0 | 0.00 | 0.00 | 0.00 | 68 | 1017.2 |
| 20260510121520 | 50 | 68 | 5.2 | 7.0 | 0.00 | 0.00 | 0.00 | 69 | 1017.2 |
| 20260510121007 | 49 | 54 | 3.5 | 5.2 | 0.00 | 0.00 | 0.00 | 72 | 1017.2 |
| 20260510120508 | 49 | 68 | 3.5 | 5.2 | 0.00 | 0.00 | 0.00 | 73 | 1017.2 |
| 20260510120024 | 49 | 51 | 3.5 | 5.2 | 0.00 | 0.00 | 0.00 | 74 | 1017.0 |
| 20260510115511 | 48 | 65 | 2.6 | 4.3 | 0.00 | 0.00 | 0.00 | 76 | 1017.0 |
| 20260510115010 | 48 | 61 | 1.7 | 4.3 | 0.00 | 0.00 | 0.00 | 78 | 1016.8 |
| 20260510114526 | 47 | 50 | 2.6 | 4.3 | 0.00 | 0.00 | 0.00 | 78 | 1016.6 |
| 20260510114004 | 47 | 49 | 1.7 | 2.6 | 0.00 | 0.00 | 0.00 | 80 | 1016.6 |
| 20260510113503 | 47 | 55 | 1.7 | 2.6 | 0.00 | 0.00 | 0.00 | 79 | 1016.5 |
| 20260510112510 | 46 | 45 | 0.9 | 2.6 | 0.00 | 0.00 | 0.00 | 83 | 1016.2 |
| 20260510112009 | 46 | 34 | 0.0 | 0.9 | 0.00 | 0.00 | 0.00 | 83 | 1016.2 |
| 20260510111521 | 46 | 30 | 0.0 | 1.7 | 0.00 | 0.00 | 0.00 | 83 | 1016.2 |
| 20260510111012 | 46 | 30 | 0.0 | 1.7 | 0.00 | 0.00 | 0.00 | 84 | 1016.0 |
| 20260510110506 | 46 | 29 | 0.9 | 1.7 | 0.00 | 0.00 | 0.00 | 84 | 1015.9 |
| 20260510110032 | 45 | 28 | 0.9 | 2.6 | 0.00 | 0.00 | 0.00 | 85 | 1015.8 |
| 20260510105507 | 45 | 41 | 0.0 | 4.3 | 0.00 | 0.00 | 0.00 | 85 | 1015.9 |
| 20260510105011 | 45 | 51 | 1.7 | 4.3 | 0.00 | 0.00 | 0.00 | 86 | 1015.7 |
| 20260510104524 | 45 | 58 | 0.0 | 0.0 | 0.00 | 0.00 | 0.00 | 85 | 1015.6 |
| 20260510104010 | 45 | 58 | 0.0 | 0.0 | 0.00 | 0.00 | 0.00 | 84 | 1015.3 |
| 20260510103507 | 45 | 58 | 0.0 | 0.0 | 0.00 | 0.00 | 0.00 | 85 | 1015.2 |
| 20260510103028 | 46 | 100 | 0.0 | 0.0 | 0.00 | 0.00 | 0.00 | 84 | 1015.1 |
| 20260510102507 | 46 | 72 | 0.0 | 0.0 | 0.00 | 0.00 | 0.00 | 84 | 1014.8 |
| 20260510102004 | 46 | 72 | 0.0 | 0.0 | 0.00 | 0.00 | 0.00 | 83 | 1014.8 |
| 20260510101519 | 47 | 93 | 0.0 | 0.0 | 0.00 | 0.00 | 0.00 | 82 | 1014.7 |
| 20260510101008 | 47 | 94 | 0.0 | 0.0 | 0.00 | 0.00 | 0.00 | 81 | 1014.7 |
| 20260510100503 | 48 | 94 | 0.0 | 0.0 | 0.00 | 0.00 | 0.00 | 81 | 1014.5 |
| 20260510100005 | 48 | 94 | 0.0 | 0.0 | 0.00 | 0.00 | 0.00 | 80 | 1014.4 |
| 20260510095505 | 48 | 91 | 0.0 | 0.0 | 0.00 | 0.00 | 0.00 | 80 | 1014.3 |
| 20260510095003 | 49 | 40 | 0.0 | 2.6 | 0.00 | 0.00 | 0.00 | 79 | 1014.2 |
| 20260510094508 | 49 | 64 | 0.0 | 2.6 | 0.00 | 0.00 | 0.00 | 79 | 1014.1 |
| 20260510094004 | 49 | 352 | 0.0 | 2.6 | 0.00 | 0.00 | 0.00 | 80 | 1014.0 |
| 20260510093504 | 49 | 133 | 0.0 | 1.7 | 0.00 | 0.00 | 0.00 | 80 | 1013.9 |
| 20260510093012 | 49 | 106 | 0.0 | 0.0 | 0.00 | 0.00 | 0.00 | 80 | 1013.9 |
| 20260510092504 | 50 | 37 | 0.0 | 0.0 | 0.00 | 0.00 | 0.00 | 80 | 1013.8 |
| 20260510092004 | 50 | 37 | 0.0 | 0.0 | 0.00 | 0.00 | 0.00 | 80 | 1013.7 |
| 20260510091516 | 51 | 37 | 0.0 | 0.0 | 0.00 | 0.00 | 0.00 | 78 | 1013.7 |
| 20260510090504 | 51 | 29 | 0.0 | 0.0 | 0.00 | 0.00 | 0.00 | 76 | 1013.5 |
| 20260510090031 | 52 | 29 | 0.0 | 0.0 | 0.00 | 0.00 | 0.00 | 76 | 1013.5 |
| 20260510085511 | 52 | 29 | 0.0 | 0.0 | 0.00 | 0.00 | 0.00 | 76 | 1013.6 |
| 20260510085002 | 53 | 29 | 0.0 | 0.0 | 0.00 | 0.00 | 0.00 | 76 | 1013.5 |
| 20260510084506 | 53 | 29 | 0.0 | 0.0 | 0.00 | 0.00 | 0.00 | 75 | 1013.6 |
| 20260510084004 | 53 | 36 | 0.0 | 0.0 | 0.00 | 0.00 | 0.00 | 75 | 1013.5 |
| 20260510083505 | 53 | 36 | 0.0 | 0.0 | 0.00 | 0.00 | 0.00 | 75 | 1013.5 |
| 20260510083009 | 54 | 36 | 0.0 | 0.0 | 0.00 | 0.00 | 0.00 | 74 | 1013.6 |
| 20260510082506 | 54 | 36 | 0.0 | 0.0 | 0.00 | 0.00 | 0.00 | 74 | 1013.5 |
| 20260510082004 | 54 | 36 | 0.0 | 0.0 | 0.00 | 0.00 | 0.00 | 74 | 1013.4 |
| 20260510081514 | 54 | 36 | 0.0 | 0.0 | 0.00 | 0.00 | 0.00 | 74 | 1013.4 |
| 20260510081004 | 54 | 36 | 0.0 | 0.0 | 0.00 | 0.00 | 0.00 | 74 | 1013.3 |
| 20260510080506 | 54 | 36 | 0.0 | 0.0 | 0.00 | 0.00 | 0.00 | 72 | 1013.2 |
| 20260510080015 | 54 | 36 | 0.0 | 0.0 | 0.00 | 0.00 | 0.00 | 72 | 1013.3 |
| 20260510075507 | 55 | 36 | 0.0 | 0.0 | 0.00 | 0.00 | 0.00 | 72 | 1013.4 |
| 20260510074521 | 55 | 36 | 0.0 | 0.0 | 0.00 | 0.00 | 0.00 | 71 | 1013.3 |
| 20260510074006 | 55 | 36 | 0.0 | 0.0 | 0.00 | 0.00 | 0.00 | 70 | 1013.3 |
| 20260510073503 | 56 | 36 | 0.0 | 0.0 | 0.00 | 0.00 | 0.00 | 69 | 1013.3 |
| 20260510073005 | 56 | 45 | 0.0 | 0.0 | 0.00 | 0.00 | 0.00 | 69 | 1013.2 |
| 20260510071510 | 56 | 45 | 0.0 | 0.0 | 0.00 | 0.00 | 0.00 | 68 | 1013.2 |
| 20260510071004 | 56 | 45 | 0.0 | 0.0 | 0.00 | 0.00 | 0.00 | 67 | 1013.2 |
| 20260510070503 | 56 | 45 | 0.0 | 0.0 | 0.00 | 0.00 | 0.00 | 67 | 1013.3 |
| 20260510070014 | 56 | 45 | 0.0 | 0.0 | 0.00 | 0.00 | 0.00 | 68 | 1013.2 |
| 20260510065509 | 56 | 45 | 0.0 | 0.0 | 0.00 | 0.00 | 0.00 | 68 | 1013.1 |
| 20260510064520 | 57 | 41 | 0.0 | 1.7 | 0.00 | 0.00 | 0.00 | 67 | 1012.5 |
| 20260510064009 | 57 | 31 | 0.9 | 1.7 | 0.00 | 0.00 | 0.00 | 68 | 1012.4 |
| 20260510063509 | 57 | 335 | 0.0 | 1.7 | 0.00 | 0.00 | 0.00 | 67 | 1012.4 |
| 20260510063022 | 57 | 23 | 0.0 | 3.5 | 0.00 | 0.00 | 0.00 | 67 | 1012.2 |
| 20260510062511 | 57 | 13 | 0.9 | 4.3 | 0.00 | 0.00 | 0.00 | 68 | 1012.1 |
| 20260510061506 | 57 | 39 | 1.7 | 3.5 | 0.00 | 0.00 | 0.00 | 67 | 1012.4 |
| 20260510061004 | 58 | 45 | 1.7 | 3.5 | 0.00 | 0.00 | 0.00 | 68 | 1012.3 |
| 20260510060009 | 58 | 85 | 0.9 | 1.7 | 0.00 | 0.00 | 0.00 | 65 | 1012.2 |
| 20260510055508 | 58 | 168 | 0.0 | 0.0 | 0.00 | 0.00 | 0.00 | 66 | 1012.3 |
| 20260510054520 | 59 | 168 | 0.0 | 0.0 | 0.00 | 0.00 | 0.00 | 62 | 1012.2 |
| 20260510054008 | 59 | 150 | 0.0 | 0.0 | 0.00 | 0.00 | 0.00 | 61 | 1012.0 |
| 20260510053021 | 59 | 155 | 0.0 | 0.9 | 0.00 | 0.00 | 0.00 | 60 | 1012.0 |
| 20260510052507 | 60 | 236 | 0.0 | 1.7 | 0.00 | 0.00 | 0.00 | 60 | 1011.9 |
| 20260510052009 | 60 | 292 | 0.0 | 1.7 | 0.00 | 0.00 | 0.00 | 60 | 1011.7 |
| 20260510051525 | 60 | 64 | 0.0 | 1.7 | 0.00 | 0.00 | 0.00 | 59 | 1011.6 |
| 20260510051007 | 60 | 92 | 0.0 | 1.7 | 0.00 | 0.00 | 0.00 | 59 | 1011.6 |
| 20260510050008 | 61 | 119 | 0.9 | 2.6 | 0.00 | 0.00 | 0.00 | 59 | 1011.5 |
| 20260510044510 | 61 | 233 | 0.9 | 2.6 | 0.00 | 0.00 | 0.00 | 57 | 1011.4 |
| 20260510044002 | 61 | 88 | 0.9 | 2.6 | 0.00 | 0.00 | 0.00 | 58 | 1011.4 |
| 20260510043021 | 61 | 326 | 0.9 | 2.6 | 0.00 | 0.00 | 0.00 | 59 | 1011.4 |
| 20260510041522 | 61 | 323 | 0.9 | 3.5 | 0.00 | 0.00 | 0.00 | 60 | 1011.1 |
| 20260510041008 | 61 | 303 | 0.0 | 0.9 | 0.00 | 0.00 | 0.00 | 60 | 1011.0 |
| 20260510040509 | 61 | 328 | 0.0 | 0.9 | 0.00 | 0.00 | 0.00 | 60 | 1011.0 |
| 20260510040024 | 62 | 337 | 0.0 | 0.0 | 0.00 | 0.00 | 0.00 | 60 | 1011.0 |
| 20260510035507 | 62 | 302 | 0.0 | 0.0 | 0.00 | 0.00 | 0.00 | 59 | 1010.9 |
| 20260510034507 | 62 | 302 | 0.0 | 0.0 | 0.00 | 0.00 | 0.00 | 60 | 1010.7 |
| 20260510034003 | 62 | 302 | 0.0 | 0.0 | 0.00 | 0.00 | 0.00 | 60 | 1010.5 |
| 20260510033012 | 62 | 302 | 0.0 | 0.9 | 0.00 | 0.00 | 0.00 | 57 | 1010.2 |
| 20260510032009 | 62 | 326 | 0.0 | 2.6 | 0.00 | 0.00 | 0.00 | 56 | 1010.0 |
| 20260510031523 | 62 | 336 | 0.9 | 2.6 | 0.00 | 0.00 | 0.00 | 57 | 1009.9 |
| 20260510025509 | 62 | 266 | 0.0 | 0.0 | 0.00 | 0.00 | 0.00 | 62 | 1009.6 |
| 20260510025009 | 62 | 262 | 0.0 | 0.0 | 0.00 | 0.00 | 0.00 | 61 | 1009.6 |
| 20260510024526 | 62 | 261 | 0.0 | 0.0 | 0.00 | 0.00 | 0.00 | 62 | 1009.5 |
| 20260510024008 | 63 | 261 | 0.0 | 0.0 | 0.00 | 0.00 | 0.00 | 61 | 1009.5 |
| 20260510023008 | 63 | 333 | 0.0 | 0.0 | 0.00 | 0.00 | 0.00 | 56 | 1009.3 |
| 20260510022004 | 64 | 333 | 0.0 | 0.0 | 0.00 | 0.00 | 0.00 | 55 | 1009.2 |
| 20260510020018 | 64 | 337 | 0.0 | 0.0 | 0.00 | 0.00 | 0.00 | 54 | 1009.0 |
| 20260510014010 | 65 | 344 | 0.0 | 1.7 | 0.00 | 0.00 | 0.00 | 51 | 1008.5 |
| 20260510013512 | 65 | 328 | 0.0 | 2.6 | 0.00 | 0.00 | 0.00 | 50 | 1008.5 |
| 20260510013026 | 65 | 338 | 0.9 | 4.3 | 0.00 | 0.00 | 0.00 | 50 | 1008.4 |
| 20260510012004 | 65 | 322 | 0.0 | 2.6 | 0.00 | 0.00 | 0.00 | 50 | 1008.3 |
| 20260510011512 | 65 | 310 | 0.0 | 2.6 | 0.00 | 0.00 | 0.00 | 49 | 1008.3 |
| 20260510011003 | 66 | 6 | 0.9 | 2.6 | 0.00 | 0.00 | 0.00 | 49 | 1008.2 |
| 20260510005509 | 66 | 188 | 0.9 | 2.6 | 0.00 | 0.00 | 0.00 | 46 | 1008.0 |
| 20260510003508 | 68 | 67 | 0.9 | 3.5 | 0.00 | 0.00 | 0.00 | 42 | 1007.7 |
| 20260510002509 | 69 | 204 | 0.9 | 2.6 | 0.00 | 0.00 | 0.00 | 40 | 1007.5 |
| 20260510002011 | 70 | 274 | 0.9 | 3.5 | 0.00 | 0.00 | 0.00 | 39 | 1007.3 |
| 20260510001526 | 71 | 1 | 0.9 | 4.3 | 0.00 | 0.00 | 0.00 | 38 | 1007.3 |
| 20260510001004 | 71 | 339 | 2.6 | 5.2 | 0.00 | 0.00 | 0.00 | 36 | 1007.2 |
| 20260510000504 | 72 | 337 | 0.9 | 5.2 | 0.00 | 0.00 | 0.00 | 36 | 1007.1 |
| 20260509235505 | 72 | 345 | 2.6 | 5.2 | 0.00 | 0.00 | 0.00 | 33 | 1007.0 |
| 20260509234519 | 73 | 316 | 1.7 | 7.0 | 0.00 | 0.00 | 0.00 | 33 | 1006.9 |
| 20260509234008 | 73 | 354 | 1.7 | 7.0 | 0.00 | 0.00 | 0.00 | 34 | 1006.9 |
| 20260509232507 | 73 | 331 | 1.7 | 6.1 | 0.00 | 0.00 | 0.00 | 34 | 1006.9 |
| 20260509232002 | 73 | 64 | 2.6 | 6.1 | 0.00 | 0.00 | 0.00 | 33 | 1006.9 |
| 20260509231508 | 73 | 341 | 1.7 | 7.0 | 0.00 | 0.00 | 0.00 | 33 | 1006.8 |
| 20260509231003 | 74 | 270 | 3.5 | 8.7 | 0.00 | 0.00 | 0.00 | 31 | 1006.7 |
| 20260509230011 | 75 | 56 | 2.6 | 8.7 | 0.00 | 0.00 | 0.00 | 33 | 1006.4 |
| 20260509224008 | 76 | 308 | 2.6 | 6.1 | 0.00 | 0.00 | 0.00 | 28 | 1006.1 |
| 20260509223506 | 76 | 283 | 1.7 | 6.1 | 0.00 | 0.00 | 0.00 | 28 | 1006.1 |
| 20260509223018 | 76 | 323 | 2.6 | 11.3 | 0.00 | 0.00 | 0.00 | 29 | 1006.0 |
| 20260509222507 | 76 | 297 | 1.7 | 14.8 | 0.00 | 0.00 | 0.00 | 31 | 1006.1 |
| 20260509222009 | 76 | 296 | 7.8 | 16.5 | 0.00 | 0.00 | 0.00 | 30 | 1006.1 |
| 20260509221523 | 76 | 284 | 8.7 | 16.5 | 0.00 | 0.00 | 0.00 | 27 | 1006.2 |